Weather in Osipovichi

Belarus     54°27′37″N   26°50′55″E
temp.,
°C
wind,
m/s
gust,
m/s
humid.,
%
clouds,
%
prec.,
mm/h
press.,
hPa
HPBL,
m
8 march, mon
mon800:00−3wnw5117262 0.1 1005837
03:00−4wnw6127354 0.1 1006847
06:00−4wnw598892 0.1 1006903
09:00−5nnw699196 0.6 1008766
12:00−3nnw586297 0.3 10111282
15:00−2nnw586199 0.4 10131358
18:00−3nnw5776100 0.1 1014949
21:00−5nnw3778100 0.3 1016677
9 march, tue
tue900:00−5n2580100 0.1 1018636
03:00−6nnw2385100 0.1 1019129
06:00−7nnw249179 0.0 1020187
09:00−7nnw248761 0.0 1022320
12:00−4nnw345714 0.0 1023819
15:00−2nw23468 0.0 10231153
18:00−2w235313 0.0 1022519
21:00−4wsw357434 0.0 1024154
10 march, wed
wed1000:00−5wsw367988 0.0 1024230
03:00−6sw378380 0.0 1024235
06:00−7sw378364 0.0 1024229
09:00−6sw357868 0.0 1025257
12:00−3sw356498 0.0 1025519
15:00−1sw345291 0.0 10251031
18:00−1sw246092 0.0 1024642
21:00−4ssw227792 0.0 102561
11 march, thu
thu1100:00−5s258497 0.0 1026165
03:00−5ssw258398 0.0 1026195
06:00−6s2579100 0.0 1025186
09:00−6s357468 0.0 1026235
12:00−2s46570 0.0 1025608
15:000s68530 0.0 10231288
18:00−1sse696673 0.0 10211080
21:00−2sse7136687 0.0 1019831
12 march, fri
fri1200:00−2sse71383100 0.0 1017885
03:00−2sse81476100 0.0 1014910
06:00−2sse91575100 0.0 1011803
09:00−3sse91788100 0.3 1008822
12:00−1s81492100 2.4 1007790
15:00+1s71295100 3.2 1006528
18:00+2sw41197100 0.7 1006430
21:00+2w41198100 2.3 1008495